FW3095 Weather Reports


Display with metric or nautical units.
time (UTC)temp
F
wind
direction
speed
MPH
gust
MPH
rain 1hr
in
rain 24hr
in
rain mn
in
humidity
%
barometer
mb
20260503233044 58 220 1.0 8.0 0.00 0.09 0.09 64 982.0
20260503231537 58 248 6.0 11.0 0.00 0.09 0.09 62 982.0
20260503230042 59 200 2.0 10.0 0.00 0.09 0.09 62 982.2
20260503224533 59 214 6.0 13.0 0.00 0.09 0.09 60 982.2
20260503223033 60 200 4.0 14.0 0.00 0.09 0.09 61 982.2
20260503221536 59 234 4.0 10.0 0.00 0.09 0.09 61 982.3
20260503220031 59 226 2.0 10.0 0.00 0.09 0.09 63 982.4
20260503214528 59 205 5.0 13.0 0.00 0.09 0.09 62 982.5
20260503213027 58 127 5.0 10.0 0.00 0.09 0.09 64 982.6
20260503211526 56 159 7.0 11.0 0.00 0.09 0.09 79 982.9
20260503210024 55 134 6.0 12.0 0.00 0.09 0.09 80 983.1
20260503204523 54 88 10.0 13.0 0.00 0.09 0.09 80 983.7
20260503203020 53 120 6.0 10.0 0.00 0.09 0.09 83 983.9
20260503201515 52 126 6.0 11.0 0.00 0.09 0.09 82 984.5
20260503200013 51 101 5.0 10.0 0.01 0.09 0.09 83 984.8
20260503194512 50 99 3.0 7.0 0.06 0.09 0.09 86 985.3
20260503193007 49 76 2.0 7.0 0.09 0.09 0.09 84 986.0
20260503191505 49 121 0.0 3.0 0.09 0.09 0.09 86 986.2
20260503190005 49 238 0.0 3.0 0.08 0.08 0.08 83 986.7
20260503184502 50 223 1.0 15.0 0.03 0.03 0.03 82 987.3
20260503183001 51 217 7.0 17.0 0.00 0.00 0.00 79 987.2
20260503181600 53 243 15.0 27.0 0.00 0.00 0.00 70 986.6
20260503181502 54 221 16.0 27.0 0.00 0.00 0.00 70 986.7
20260503180108 58 252 12.0 20.0 0.00 0.00 0.00 57 986.4
20260503174601 59 248 7.0 19.0 0.00 0.00 0.00 55 986.6
20260503173107 60 252 11.0 18.0 0.00 0.00 0.00 52 986.7
20260503171554 60 234 10.0 18.0 0.00 0.00 0.00 52 987.1
20260503081520 39 229 0.0 3.0 0.00 0.00 0.00 76 988.3
20260503071507 39 238 0.0 2.0 0.00 0.00 0.00 77 988.5
20260503060128 36 140 0.0 0.0 0.00 0.00 0.00 82 989.0
20260503054602 36 140 0.0 0.0 0.00 0.00 0.00 82 989.1
20260503053058 36 140 0.0 0.0 0.00 0.00 0.00 82 989.2
20260503051557 36 140 0.0 0.0 0.00 0.00 0.00 81 989.2
20260503050055 36 140 0.0 0.0 0.00 0.00 0.00 81 989.3
20260503044552 37 140 0.0 0.0 0.00 0.00 0.00 80 989.4
20260503043051 37 140 0.0 0.0 0.00 0.00 0.00 81 989.3
20260503041549 37 140 0.0 0.0 0.00 0.00 0.00 80 989.3
20260503040059 38 140 0.0 0.0 0.00 0.00 0.00 78 989.4
20260503034546 39 140 0.0 0.0 0.00 0.00 0.00 78 989.3
20260503033044 40 140 0.0 0.0 0.00 0.00 0.00 78 989.3
20260503031557 40 140 0.0 0.0 0.00 0.00 0.00 78 989.4
20260503030048 41 140 0.0 0.0 0.00 0.00 0.00 73 989.3
20260503024542 41 140 0.0 0.0 0.00 0.00 0.00 72 989.5
20260503023049 41 140 0.0 0.0 0.00 0.00 0.00 73 989.4
20260503021541 39 301 0.0 0.0 0.00 0.00 0.00 74 989.4
20260503020141 40 301 0.0 0.0 0.00 0.00 0.00 71 989.4
20260503014556 42 301 0.0 0.0 0.00 0.00 0.00 67 989.2
20260503013040 43 301 0.0 0.0 0.00 0.00 0.00 63 989.1
20260503011539 44 301 0.0 0.0 0.00 0.00 0.00 61 989.1
20260503010040 45 301 0.0 0.0 0.00 0.00 0.00 55 989.1
20260503004538 47 301 0.0 0.0 0.00 0.00 0.00 52 989.1
20260503003038 49 301 0.0 1.0 0.00 0.00 0.00 50 989.2
20260503001552 50 301 0.0 3.0 0.00 0.00 0.00 47 989.1
20260503000038 51 334 2.0 4.0 0.00 0.00 0.00 46 989.0
20260502234541 51 349 2.0 5.0 0.00 0.00 0.00 45 988.9